Regional Weather Roundup
Issued by NWS

Home | Current Version | Previous Version | Text Only | Print | Product List | Glossary On
Versions: 1 2 3 4 5 6 7 8 9 10 11 12 13 14 15 16 17 18 19 20 21 22 23 24 25 26 27 28 29 30 31 32 33 34 35 36 37 38 39 40 41 42 43 44 45 46 47 48 49 50
000
ASMX46 KSGX 251511
RWRMX

MEXICAN WEATHER ROUNDUP
NATIONAL WEATHER SERVICE SAN DIEGO CA
800 AM PDT WED MAY 25 2016

BAJA CALIFORNIA

CITY           SKY/WX    TMP DP  RH WIND       PRES   REMARKS
ENSENADA NW      N/A     61  32  33 CALM      30.05S
LA PAZ         MOSUNNY   75  52  43 S9        30.03R
LORETO         PTSUNNY   75  70  83 CALM      29.94R
MEXICALI       SUNNY     66  37  34 W13       29.96R
S.J. DEL CABO  CLOUDY    79  68  69 CALM      29.98R
TIJUANA        PTSUNNY   61  52  72 NW6       30.09R

NORTHWESTERN MEXICO

CITY           SKY/WX    TMP DP  RH WIND       PRES   REMARKS
CHIHUAHUA      PTSUNNY   72  37  28 CALM      30.19R
CULIACAN       CLOUDY    81  68  65 S6        29.96R
GUAYMAS        MOSUNNY   73  54  49 CALM      29.93R
HERMOSILLO     SUNNY     75  39  27 CALM      30.00R
JUAREZ         SUNNY     77  39  25 W8        30.05S
LOS MOCHIS     CLOUDY    77  61  57 CALM      29.97
OBREGON        PTSUNNY   82  52  34 E2        29.93R

NORTHEASTERN MEXICO

CITY           SKY/WX    TMP DP  RH WIND       PRES   REMARKS
MATAMOROS      PTSUNNY   86  75  70 SE15      29.97R HX  95
MONCLOVA       SUNNY     84  75  74 E5        29.99S
MONTERREY      CLOUDY    79  72  78 E5        29.98R
NUEVO LAREDO   MOSUNNY   82  75  78 SE16      29.96R
PIEDRAS NEGRAS FOG       81  75  83 SE9       29.96F VSB 1
REYNOSA        CLOUDY    82  73  74 S6        29.96R FOG
SALTILLO       PTSUNNY   77  59  53 CALM      30.22S
TORREON        PTSUNNY   84  52  32 CALM      30.13R
VICTORIA       MOSUNNY   81  77  89 S12       29.97R

WESTERN MEXICO

CITY           SKY/WX    TMP DP  RH WIND       PRES   REMARKS
AGUASCALIENTES SUNNY     73  39  29 SW6       30.37R
COLIMA         MOSUNNY   79  59  50 CALM      30.11S
DURANGO        MOSUNNY   75  37  25 CALM      30.35R
GUADALAJARA    SUNNY     77  46  33 CALM      30.28S
MANZANILLO     MOSUNNY   79  68  69 N7        29.95S
MAZATLAN       PTSUNNY   81  73  78 SE5       29.99R
PTO. VALLARTA  SUNNY     79  73  83 CALM      29.99R
TEPIC          SUNNY     75  55  50 CALM      30.13R
URUAPAN        SUNNY     72  61  68 CALM      30.29R
ZACATECAS      SUNNY     72  43  35 CALM      30.39R

CENTRAL MEXICO

CITY           SKY/WX    TMP DP  RH WIND       PRES   REMARKS
CUERNAVACA     SUNNY     82  50  32 CALM      30.24R
LEON           SUNNY     77  50  38 W5        30.39
MEXICO CITY    SUNNY     66  52  59 NE8       30.45S
MORELIA        SUNNY     73  55  53 CALM      30.35R
POZA RICA      PTSUNNY   86  79  79 CALM      29.98S HX  99
PUEBLA           N/A    N/A N/A N/A MISG        N/A
QUERETARO      SUNNY     72  52  49 CALM      30.41R
S. LUIS POTOSI MOSUNNY   72  57  60 CALM      30.32S HAZE
TAMPICO        PTSUNNY   86  79  79 E12       29.96S HX  99
TOLUCA         SUNNY     66  50  55 CALM      30.55R HAZE
VERACRUZ       MOSUNNY   90  77  66 SE6       29.95R HX 102

SOUTHERN MEXICO

CITY           SKY/WX    TMP DP  RH WIND       PRES   REMARKS
ACAPULCO       MOSUNNY   88  77  70 W8        29.97R HX 100
B. DE HUATULCO MOSUNNY   88  77  70 CALM      30.03R HX 100
MINATITLAN     SUNNY     88  77  70 CALM      29.92S HX 100
OAXACA         PTSUNNY   75  55  50 CALM      30.33R
PTO. ESCONDIDO MOSUNNY   86  79  79 W5        30.06R HX  99
TAPACHULA      SUNNY     86  81  84 W8        29.91S HX 102
TUX. GUTIERREZ SUNNY     81  68  65 CALM      30.05S
VILLAHERMOSA   MOSUNNY   86  77  74 E9        29.96S HX  97
ZIHUATANEJO    MOSUNNY   86  73  66 S3        29.98R

YUCATAN PENINSULA

CITY           SKY/WX    TMP DP  RH WIND       PRES   REMARKS
CAMPECHE       MOSUNNY   90  77  66 SE7       29.96S HX 102
CANCUN         PTSUNNY   86  77  74 E12       30.07S HX  97
CHETUMAL       MOSUNNY   86  79  79 E9        30.02R HX  99
C. DEL CARMEN  MOSUNNY   88  73  62 SE17      29.96S HX  96
COZUMEL        MOSUNNY   82  75  78 E8        30.05S
MERIDA         PTSUNNY   91  75  59 E25       30.02S HX 102

$$




USA.gov is the U.S. government's official web portal to all federal, state and local government web resources and services.